Regional Weather Roundup
Issued by NWS Little Rock, AR

Home | Current Version | Previous Version | Graphics & Text | Print | Product List | Glossary On
Versions: 1 2 3 4 5 6 7 8 9 10 11 12 13 14 15 16 17 18 19 20 21 22 23 24 25 26 27 28 29 30 31 32 33 34 35 36 37 38 39 40 41 42 43 44 45 46 47 48 49 50
000
ASUS44 KLZK 261805
RWRLZK

WEATHER ROUNDUP FOR ARKANSAS
NATIONAL WEATHER SERVICE LITTLE ROCK AR
1200 PM CST SUN FEB 26 2017

NOTE: "FAIR" INDICATES FEW OR NO CLOUDS BELOW 12,000 FEET WITH NO
SIGNIFICANT WEATHER AND/OR OBSTRUCTIONS TO VISIBILITY.

ARZ001-003-010-029-261900-
NORTHWEST ARKANSAS

CITY           SKY/WX    TMP DP  RH WIND       PRES   REMARKS
FAYETTEVILLE   CLOUDY    48  24  39 S8        30.03F
6HR MIN TEMP:  25; 6HR MAX TEMP:  48;

FORT SMITH     CLOUDY    52  23  32 SE13      30.04F
6HR MIN TEMP:  33; 6HR MAX TEMP:  53;

HARRISON       CLOUDY    47  22  37 S10       30.07F
6HR MIN TEMP:  27; 6HR MAX TEMP:  50;

BENTONVILLE    CLOUDY    45  27  49 E9        30.02F
6HR MIN TEMP:  34; 6HR MAX TEMP:  45;

ROGERS         CLOUDY    44  29  55 E10       30.02F
6HR MIN TEMP:  32; 6HR MAX TEMP:  45; 6HR PCP: TRACE;

SILOAM SPGS    CLOUDY    46  25  42 SE9G16    30.01F
6HR MIN TEMP:  30; 6HR MAX TEMP:  46;

SPRINGDALE     PTSUNNY   46  23  39 SE9       30.04F
$$

ARZ004-005-016-261900-
NORTH CENTRAL ARKANSAS

CITY           SKY/WX    TMP DP  RH WIND       PRES   REMARKS
BATESVILLE     SUNNY     54  23  30 SE12G17   30.14F
6HR MIN TEMP:  27; 6HR MAX TEMP:  54;

FLIPPIN        PTSUNNY   48  21  34 S13       30.08F
6HR MIN TEMP:  25; 6HR MAX TEMP:  50;

MTN HOME       CLOUDY    47  24  40 SE8       30.09F
6HR MIN TEMP:  28; 6HR MAX TEMP:  47;

$$

ARZ040-041-261900-
WEST CENTRAL ARKANSAS

CITY           SKY/WX    TMP DP  RH WIND       PRES   REMARKS
MENA           CLOUDY    59  28  31 S7        30.05F
MOUNT IDA      PTSUNNY   57  24  28 S9G17     30.03F
6HR MIN TEMP:  26; 6HR MAX TEMP:  57;

$$

ARZ009-017-025-026-028-261900-
NORTHEAST ARKANSAS

CITY           SKY/WX    TMP DP  RH WIND       PRES   REMARKS
CORNING        CLOUDY    50  27  40 SE9       30.17F
JONESBORO      MOSUNNY   50  25  37 SE7       30.16F
6HR MIN TEMP:  29; 6HR MAX TEMP:  50;

NEWPORT        SUNNY     53  26  35 S10       30.17F
6HR MIN TEMP:  28; 6HR MAX TEMP:  53;

WALNUT RIDGE   PTSUNNY   50  25  37 SE8       30.16F
6HR MIN TEMP:  28; 6HR MAX TEMP:  50;

BLYTHEVILLE    SUNNY     51  22  31 SE8       30.18F
6HR MIN TEMP:  29; 6HR MAX TEMP:  51;

$$

ARZ022-023-033-042-044-261900-
CENTRAL ARKANSAS

CITY           SKY/WX    TMP DP  RH WIND       PRES   REMARKS
LITTLE ROCK    MOSUNNY   53  27  36 SE13      30.14F
6HR MIN TEMP:  32; 6HR MAX TEMP:  54;

N LITTLE ROCK    N/A     51  28  41 S12G20    30.15F
6HR MIN TEMP:  36; 6HR MAX TEMP:  51;

JACKSONVILLE   MOSUNNY   53  29  40 SE9G18    30.13F
6HR MIN TEMP:  29; 6HR MAX TEMP:  53;

SEARCY         SUNNY     55  27  34 SE10      30.16F
6HR MIN TEMP:  26; 6HR MAX TEMP:  55;

HOT SPRINGS    MOSUNNY   54  25  32 SE9       30.10F
6HR MIN TEMP:  32; 6HR MAX TEMP:  55;

RUSSELLVILLE   PTSUNNY   53  25  33 SE8       30.09F
6HR MIN TEMP:  28; 6HR MAX TEMP:  53;

CLINTON        FAIR      54  27  35 S8G14     30.11F
$$

ARZ036-261900-
EAST ARKANSAS

CITY           SKY/WX    TMP DP  RH WIND       PRES   REMARKS
WEST MEMPHIS   SUNNY     54  24  31 S7        30.14F
6HR MIN TEMP:  29; 6HR MAX TEMP:  54;

$$

ARZ050-053-066-070-073-261900-
SOUTHWEST ARKANSAS

CITY           SKY/WX    TMP DP  RH WIND       PRES   REMARKS
ARKADELPHIA    MOCLDY    57  30  35 S7        30.11F
6HR MIN TEMP:  29; 6HR MAX TEMP:  57;

CAMDEN         MOSUNNY   63  21  20 S9G16     30.10F
TEXARKANA      CLOUDY    56  29  35 SE12      30.08F
6HR MIN TEMP:  36; 6HR MAX TEMP:  57;

EL DORADO      SUNNY     59  25  27 SE12      30.10F
6HR MIN TEMP:  37; 6HR MAX TEMP:  59;

DE QUEEN       PTSUNNY   55  31  39 SE8       30.05F
6HR MIN TEMP:  33; 6HR MAX TEMP:  55;

$$

ARZ056-057-069-261900-
SOUTHEAST ARKANSAS

CITY           SKY/WX    TMP DP  RH WIND       PRES   REMARKS
PINE BLUFF     MOSUNNY   54  30  40 E12       30.14F
6HR MIN TEMP:  33; 6HR MAX TEMP:  55;

STUTTGART      SUNNY     54  25  32 SE13      30.16S
6HR MIN TEMP:  36; 6HR MAX TEMP:  54;

MONTICELLO     SUNNY     56  23  27 S9G22     30.13F
6HR MIN TEMP:  32; 6HR MAX TEMP:  57;


$$





USA.gov is the U.S. government's official web portal to all federal, state and local government web resources and services.